| time (UTC) | temp F | wind direction | speed MPH | gust MPH | rain 1hr in | rain 24hr in | rain mn in | humidity % | barometer mb |
| 20260510134505 | 76 | 353 | 0.0 | 3.0 | 0.00 | 0.14 | 0.00 | 94 | 1014.8 |
| 20260510134005 | 76 | 308 | 1.0 | 4.0 | 0.00 | 0.14 | 0.00 | 94 | 1014.8 |
| 20260510133525 | 75 | 305 | 1.0 | 4.0 | 0.00 | 0.14 | 0.00 | 94 | 1014.9 |
| 20260510133005 | 75 | 303 | 1.0 | 3.0 | 0.00 | 0.14 | 0.00 | 95 | 1015.0 |
| 20260510132505 | 75 | 323 | 1.0 | 3.0 | 0.00 | 0.14 | 0.00 | 96 | 1014.8 |
| 20260510132004 | 74 | 5 | 0.0 | 3.0 | 0.00 | 0.14 | 0.00 | 97 | 1014.8 |
| 20260510131525 | 74 | 0 | 0.0 | 0.0 | 0.00 | 0.14 | 0.00 | 97 | 1014.8 |
| 20260510131025 | 74 | 0 | 0.0 | 0.0 | 0.00 | 0.14 | 0.00 | 97 | 1014.8 |
| 20260510130504 | 73 | 0 | 0.0 | 0.0 | 0.00 | 0.14 | 0.00 | 96 | 1014.7 |
| 20260510130005 | 73 | 0 | 0.0 | 0.0 | 0.00 | 0.14 | 0.00 | 97 | 1014.7 |
| 20260510125504 | 73 | 0 | 0.0 | 0.0 | 0.00 | 0.14 | 0.00 | 97 | 1014.5 |
| 20260510125005 | 73 | 126 | 0.0 | 2.0 | 0.00 | 0.14 | 0.00 | 97 | 1014.5 |
| 20260510124504 | 73 | 126 | 0.0 | 2.0 | 0.00 | 0.14 | 0.00 | 97 | 1014.5 |
| 20260510124026 | 72 | 126 | 0.0 | 2.0 | 0.00 | 0.14 | 0.00 | 97 | 1014.5 |
| 20260510123504 | 72 | 126 | 0.0 | 2.0 | 0.00 | 0.14 | 0.00 | 97 | 1014.4 |
| 20260510123004 | 72 | 126 | 0.0 | 1.0 | 0.00 | 0.14 | 0.00 | 97 | 1014.4 |
| 20260510122505 | 72 | 126 | 0.0 | 1.0 | 0.00 | 0.14 | 0.00 | 97 | 1014.3 |
| 20260510122026 | 71 | 126 | 0.0 | 1.0 | 0.00 | 0.14 | 0.00 | 97 | 1014.3 |
| 20260510121504 | 70 | 126 | 0.0 | 1.0 | 0.00 | 0.14 | 0.00 | 96 | 1014.2 |
| 20260510121005 | 70 | 126 | 0.0 | 1.0 | 0.00 | 0.14 | 0.00 | 96 | 1014.2 |
| 20260510120504 | 70 | 0 | 0.0 | 0.0 | 0.00 | 0.14 | 0.00 | 96 | 1014.1 |
| 20260510120005 | 70 | 126 | 0.0 | 1.0 | 0.00 | 0.14 | 0.00 | 96 | 1014.0 |
| 20260510115504 | 70 | 126 | 0.0 | 1.0 | 0.00 | 0.14 | 0.00 | 96 | 1014.0 |
| 20260510115004 | 69 | 0 | 0.0 | 0.0 | 0.00 | 0.14 | 0.00 | 96 | 1014.0 |
| 20260510114504 | 69 | 0 | 0.0 | 0.0 | 0.00 | 0.14 | 0.00 | 96 | 1013.8 |
| 20260510114004 | 69 | 0 | 0.0 | 0.0 | 0.00 | 0.14 | 0.00 | 96 | 1013.7 |
| 20260510113504 | 69 | 0 | 0.0 | 0.0 | 0.00 | 0.14 | 0.00 | 96 | 1013.5 |
| 20260510113004 | 69 | 0 | 0.0 | 0.0 | 0.00 | 0.14 | 0.00 | 96 | 1013.4 |
| 20260510112504 | 68 | 0 | 0.0 | 0.0 | 0.00 | 0.14 | 0.00 | 96 | 1013.4 |
| 20260510112004 | 68 | 0 | 0.0 | 0.0 | 0.00 | 0.14 | 0.00 | 96 | 1013.4 |
| 20260510111504 | 68 | 0 | 0.0 | 0.0 | 0.00 | 0.14 | 0.00 | 96 | 1013.3 |
| 20260510111004 | 68 | 0 | 0.0 | 0.0 | 0.00 | 0.14 | 0.00 | 96 | 1013.2 |
| 20260510110505 | 68 | 0 | 0.0 | 0.0 | 0.00 | 0.14 | 0.00 | 96 | 1013.2 |
| 20260510110005 | 68 | 0 | 0.0 | 0.0 | 0.00 | 0.14 | 0.00 | 96 | 1013.0 |
| 20260510105504 | 68 | 0 | 0.0 | 0.0 | 0.00 | 0.14 | 0.00 | 96 | 1012.9 |
| 20260510105004 | 68 | 0 | 0.0 | 0.0 | 0.00 | 0.14 | 0.00 | 96 | 1012.8 |
| 20260510104505 | 68 | 0 | 0.0 | 0.0 | 0.00 | 0.14 | 0.00 | 96 | 1012.7 |
| 20260510104025 | 68 | 0 | 0.0 | 0.0 | 0.00 | 0.14 | 0.00 | 96 | 1012.7 |
| 20260510103526 | 68 | 0 | 0.0 | 0.0 | 0.00 | 0.14 | 0.00 | 96 | 1012.7 |
| 20260510103025 | 68 | 0 | 0.0 | 0.0 | 0.00 | 0.14 | 0.00 | 96 | 1012.7 |
| 20260510102504 | 67 | 0 | 0.0 | 0.0 | 0.00 | 0.14 | 0.00 | 96 | 1012.6 |
| 20260510102004 | 67 | 0 | 0.0 | 0.0 | 0.00 | 0.14 | 0.00 | 96 | 1012.5 |
| 20260510101504 | 67 | 0 | 0.0 | 0.0 | 0.00 | 0.14 | 0.00 | 96 | 1012.5 |
| 20260510101004 | 67 | 0 | 0.0 | 0.0 | 0.00 | 0.14 | 0.00 | 96 | 1012.4 |
| 20260510100504 | 67 | 0 | 0.0 | 0.0 | 0.00 | 0.14 | 0.00 | 96 | 1012.4 |
| 20260510100004 | 67 | 0 | 0.0 | 0.0 | 0.00 | 0.14 | 0.00 | 96 | 1012.3 |
| 20260510095505 | 67 | 0 | 0.0 | 0.0 | 0.00 | 0.14 | 0.00 | 96 | 1012.3 |
| 20260510095004 | 67 | 0 | 0.0 | 0.0 | 0.00 | 0.14 | 0.00 | 96 | 1012.3 |
| 20260510094506 | 68 | 0 | 0.0 | 0.0 | 0.00 | 0.14 | 0.00 | 96 | 1012.3 |
| 20260510094004 | 68 | 0 | 0.0 | 0.0 | 0.00 | 0.14 | 0.00 | 96 | 1012.4 |
| 20260510093504 | 68 | 0 | 0.0 | 0.0 | 0.00 | 0.14 | 0.00 | 96 | 1012.3 |
| 20260510093004 | 68 | 0 | 0.0 | 0.0 | 0.00 | 0.14 | 0.00 | 96 | 1012.2 |
| 20260510092504 | 68 | 0 | 0.0 | 0.0 | 0.00 | 0.14 | 0.00 | 96 | 1012.1 |
| 20260510092004 | 68 | 0 | 0.0 | 0.0 | 0.00 | 0.14 | 0.00 | 96 | 1012.2 |
| 20260510091504 | 68 | 0 | 0.0 | 0.0 | 0.00 | 0.14 | 0.00 | 96 | 1012.1 |
| 20260510091004 | 68 | 0 | 0.0 | 0.0 | 0.00 | 0.14 | 0.00 | 96 | 1012.0 |
| 20260510090504 | 68 | 0 | 0.0 | 0.0 | 0.00 | 0.14 | 0.00 | 96 | 1012.0 |
| 20260510090004 | 68 | 0 | 0.0 | 0.0 | 0.00 | 0.14 | 0.00 | 96 | 1012.0 |
| 20260510085504 | 68 | 0 | 0.0 | 0.0 | 0.00 | 0.14 | 0.00 | 96 | 1011.9 |
| 20260510085004 | 68 | 0 | 0.0 | 0.0 | 0.00 | 0.14 | 0.00 | 96 | 1011.8 |
| 20260510084505 | 68 | 0 | 0.0 | 0.0 | 0.00 | 0.14 | 0.00 | 96 | 1011.8 |
| 20260510084004 | 68 | 0 | 0.0 | 0.0 | 0.00 | 0.14 | 0.00 | 96 | 1011.8 |
| 20260510083525 | 68 | 0 | 0.0 | 0.0 | 0.00 | 0.14 | 0.00 | 95 | 1011.8 |
| 20260510083005 | 68 | 0 | 0.0 | 0.0 | 0.00 | 0.14 | 0.00 | 95 | 1011.6 |
| 20260510082504 | 68 | 0 | 0.0 | 0.0 | 0.00 | 0.14 | 0.00 | 95 | 1011.6 |
| 20260510082026 | 68 | 0 | 0.0 | 0.0 | 0.00 | 0.14 | 0.00 | 95 | 1011.6 |
| 20260510081504 | 68 | 0 | 0.0 | 0.0 | 0.00 | 0.14 | 0.00 | 95 | 1011.5 |
| 20260510081005 | 68 | 0 | 0.0 | 0.0 | 0.00 | 0.14 | 0.00 | 95 | 1011.6 |
| 20260510080504 | 68 | 0 | 0.0 | 0.0 | 0.00 | 0.14 | 0.00 | 96 | 1011.6 |
| 20260510080004 | 68 | 0 | 0.0 | 0.0 | 0.00 | 0.14 | 0.00 | 96 | 1011.5 |
| 20260510075504 | 68 | 0 | 0.0 | 0.0 | 0.00 | 0.14 | 0.00 | 96 | 1011.5 |
| 20260510075025 | 68 | 0 | 0.0 | 0.0 | 0.00 | 0.14 | 0.00 | 96 | 1011.4 |
| 20260510074526 | 68 | 0 | 0.0 | 0.0 | 0.00 | 0.14 | 0.00 | 96 | 1011.4 |
| 20260510074004 | 68 | 0 | 0.0 | 0.0 | 0.00 | 0.14 | 0.00 | 96 | 1011.3 |
| 20260510073504 | 68 | 0 | 0.0 | 0.0 | 0.00 | 0.14 | 0.00 | 95 | 1011.3 |
| 20260510073004 | 68 | 0 | 0.0 | 0.0 | 0.00 | 0.14 | 0.00 | 95 | 1011.3 |
| 20260510072504 | 68 | 0 | 0.0 | 0.0 | 0.00 | 0.14 | 0.00 | 96 | 1011.4 |
| 20260510072004 | 68 | 0 | 0.0 | 0.0 | 0.00 | 0.14 | 0.00 | 96 | 1011.5 |
| 20260510071504 | 68 | 0 | 0.0 | 0.0 | 0.00 | 0.14 | 0.00 | 96 | 1011.5 |
| 20260510071025 | 68 | 0 | 0.0 | 0.0 | 0.00 | 0.14 | 0.00 | 96 | 1011.5 |
| 20260510070505 | 68 | 0 | 0.0 | 0.0 | 0.00 | 0.14 | 0.00 | 95 | 1011.4 |
| 20260510070004 | 68 | 0 | 0.0 | 0.0 | 0.00 | 0.14 | 0.00 | 95 | 1011.5 |
| 20260510065506 | 68 | 0 | 0.0 | 0.0 | 0.00 | 0.14 | 0.00 | 95 | 1011.6 |
| 20260510065025 | 69 | 0 | 0.0 | 0.0 | 0.00 | 0.14 | 0.00 | 95 | 1011.6 |
| 20260510064526 | 69 | 0 | 0.0 | 0.0 | 0.00 | 0.14 | 0.00 | 95 | 1011.6 |
| 20260510064004 | 69 | 0 | 0.0 | 0.0 | 0.00 | 0.14 | 0.00 | 95 | 1011.7 |
| 20260510063504 | 69 | 0 | 0.0 | 0.0 | 0.00 | 0.14 | 0.00 | 95 | 1011.7 |
| 20260510063005 | 69 | 126 | 0.0 | 1.0 | 0.00 | 0.14 | 0.00 | 95 | 1011.7 |
| 20260510062504 | 69 | 126 | 0.0 | 1.0 | 0.00 | 0.14 | 0.00 | 95 | 1011.7 |
| 20260510062004 | 69 | 0 | 0.0 | 0.0 | 0.00 | 0.14 | 0.00 | 95 | 1011.8 |
| 20260510061505 | 69 | 0 | 0.0 | 0.0 | 0.00 | 0.14 | 0.00 | 95 | 1011.8 |
| 20260510061004 | 69 | 0 | 0.0 | 0.0 | 0.00 | 0.14 | 0.00 | 95 | 1011.8 |
| 20260510060504 | 69 | 0 | 0.0 | 0.0 | 0.00 | 0.14 | 0.00 | 95 | 1011.9 |
| 20260510060004 | 69 | 0 | 0.0 | 0.0 | 0.00 | 0.14 | 0.00 | 95 | 1011.9 |
| 20260510055504 | 69 | 126 | 0.0 | 1.0 | 0.00 | 0.14 | 0.00 | 95 | 1012.1 |
| 20260510055004 | 69 | 126 | 0.0 | 2.0 | 0.00 | 0.14 | 0.00 | 95 | 1012.1 |
| 20260510054504 | 69 | 126 | 0.0 | 2.0 | 0.00 | 0.14 | 0.00 | 95 | 1012.2 |
| 20260510054004 | 69 | 126 | 0.0 | 2.0 | 0.00 | 0.14 | 0.00 | 95 | 1012.2 |
| 20260510053525 | 69 | 126 | 0.0 | 2.0 | 0.00 | 0.14 | 0.00 | 95 | 1012.2 |
| 20260510053004 | 69 | 126 | 0.0 | 1.0 | 0.00 | 0.14 | 0.00 | 95 | 1012.2 |
| 20260510052504 | 69 | 126 | 0.0 | 1.0 | 0.00 | 0.14 | 0.00 | 95 | 1012.3 |
| 20260510052004 | 69 | 126 | 0.0 | 1.0 | 0.00 | 0.14 | 0.00 | 95 | 1012.4 |
| 20260510051525 | 69 | 126 | 0.0 | 1.0 | 0.00 | 0.14 | 0.00 | 95 | 1012.3 |
| 20260510051004 | 69 | 124 | 0.0 | 3.0 | 0.00 | 0.14 | 0.00 | 95 | 1012.5 |
| 20260510050504 | 69 | 123 | 0.0 | 3.0 | 0.00 | 0.14 | 0.00 | 95 | 1012.5 |
| 20260510050004 | 69 | 120 | 0.0 | 1.0 | 0.00 | 0.14 | 0.00 | 95 | 1012.6 |
| 20260510045503 | 69 | 120 | 0.0 | 2.0 | 0.00 | 0.14 | 0.00 | 95 | 1012.6 |
| 20260510045004 | 69 | 120 | 0.0 | 2.0 | 0.00 | 0.14 | 0.00 | 95 | 1012.7 |
| 20260510044503 | 69 | 120 | 1.0 | 2.0 | 0.00 | 0.14 | 0.00 | 95 | 1012.6 |
| 20260510044006 | 69 | 119 | 1.0 | 3.0 | 0.00 | 0.14 | 0.00 | 95 | 1012.6 |
| 20260510043503 | 69 | 119 | 1.0 | 3.0 | 0.00 | 0.14 | 0.00 | 95 | 1012.6 |
| 20260510043025 | 69 | 127 | 1.0 | 3.0 | 0.00 | 0.14 | 0.00 | 95 | 1012.6 |
| 20260510042504 | 69 | 132 | 1.0 | 4.0 | 0.00 | 0.14 | 0.00 | 95 | 1012.6 |
| 20260510042004 | 69 | 133 | 1.0 | 4.0 | 0.00 | 0.14 | 0.00 | 95 | 1012.7 |
| 20260510041504 | 69 | 134 | 1.0 | 3.0 | 0.00 | 0.14 | 0.00 | 95 | 1012.8 |
| 20260510041004 | 69 | 134 | 1.0 | 3.0 | 0.00 | 0.14 | 0.00 | 95 | 1013.0 |
| 20260510040504 | 69 | 134 | 1.0 | 3.0 | 0.00 | 0.14 | 0.00 | 95 | 1013.1 |
| 20260510040006 | 69 | 134 | 1.0 | 3.0 | 0.00 | 0.14 | 0.00 | 95 | 1013.2 |
| 20260510035525 | 69 | 134 | 1.0 | 3.0 | 0.00 | 0.14 | 0.14 | 95 | 1013.2 |
| 20260510035004 | 69 | 134 | 1.0 | 3.0 | 0.00 | 0.14 | 0.14 | 95 | 1013.2 |
| 20260510034504 | 69 | 130 | 1.0 | 3.0 | 0.00 | 0.14 | 0.14 | 95 | 1013.2 |
| 20260510034004 | 69 | 128 | 1.0 | 3.0 | 0.00 | 0.14 | 0.14 | 95 | 1013.2 |
| 20260510033504 | 69 | 129 | 1.0 | 3.0 | 0.00 | 0.14 | 0.14 | 95 | 1013.2 |
| 20260510033003 | 69 | 129 | 1.0 | 3.0 | 0.00 | 0.14 | 0.14 | 95 | 1013.3 |
| 20260510032504 | 69 | 127 | 0.0 | 3.0 | 0.00 | 0.14 | 0.14 | 95 | 1013.4 |
| 20260510032003 | 69 | 125 | 0.0 | 3.0 | 0.00 | 0.14 | 0.14 | 95 | 1013.4 |
| 20260510031503 | 69 | 103 | 0.0 | 1.0 | 0.00 | 0.14 | 0.14 | 95 | 1013.4 |
| 20260510031004 | 69 | 0 | 0.0 | 0.0 | 0.00 | 0.14 | 0.14 | 95 | 1013.3 |
| 20260510030503 | 69 | 0 | 0.0 | 0.0 | 0.00 | 0.14 | 0.14 | 95 | 1013.3 |
| 20260510030004 | 69 | 103 | 0.0 | 1.0 | 0.00 | 0.14 | 0.14 | 95 | 1013.3 |
| 20260510025504 | 69 | 103 | 0.0 | 1.0 | 0.00 | 0.14 | 0.14 | 95 | 1013.2 |
| 20260510025003 | 69 | 0 | 0.0 | 0.0 | 0.00 | 0.14 | 0.14 | 95 | 1013.2 |
| 20260510024504 | 69 | 0 | 0.0 | 0.0 | 0.00 | 0.14 | 0.14 | 95 | 1013.1 |
| 20260510024004 | 69 | 0 | 0.0 | 0.0 | 0.00 | 0.14 | 0.14 | 95 | 1013.1 |
| 20260510023506 | 69 | 0 | 0.0 | 0.0 | 0.00 | 0.14 | 0.14 | 95 | 1012.9 |
| 20260510023005 | 69 | 0 | 0.0 | 0.0 | 0.00 | 0.14 | 0.14 | 95 | 1012.9 |
| 20260510022506 | 69 | 0 | 0.0 | 0.0 | 0.00 | 0.14 | 0.14 | 95 | 1012.9 |
| 20260510022004 | 69 | 0 | 0.0 | 0.0 | 0.00 | 0.14 | 0.14 | 95 | 1012.9 |
| 20260510021504 | 69 | 0 | 0.0 | 0.0 | 0.00 | 0.14 | 0.14 | 95 | 1012.9 |
| 20260510021004 | 69 | 103 | 0.0 | 1.0 | 0.00 | 0.14 | 0.14 | 95 | 1013.0 |
| 20260510020503 | 69 | 103 | 0.0 | 1.0 | 0.00 | 0.14 | 0.14 | 95 | 1012.9 |
| 20260510020005 | 69 | 103 | 0.0 | 1.0 | 0.00 | 0.14 | 0.14 | 95 | 1012.9 |
| 20260510015504 | 69 | 0 | 0.0 | 0.0 | 0.00 | 0.14 | 0.14 | 95 | 1012.9 |
| 20260510015007 | 69 | 0 | 0.0 | 0.0 | 0.00 | 0.14 | 0.14 | 95 | 1012.8 |
| 20260510014503 | 70 | 0 | 0.0 | 0.0 | 0.00 | 0.14 | 0.14 | 95 | 1012.6 |
| 20260510014005 | 70 | 0 | 0.0 | 0.0 | 0.00 | 0.14 | 0.14 | 95 | 1012.4 |
| 20260510013503 | 70 | 0 | 0.0 | 0.0 | 0.00 | 0.14 | 0.14 | 95 | 1012.4 |
| 20260510013004 | 70 | 0 | 0.0 | 0.0 | 0.00 | 0.14 | 0.14 | 95 | 1012.5 |
| 20260510012505 | 70 | 0 | 0.0 | 0.0 | 0.00 | 0.14 | 0.14 | 95 | 1012.3 |
| 20260510012024 | 70 | 0 | 0.0 | 0.0 | 0.00 | 0.14 | 0.14 | 95 | 1012.3 |
| 20260510011526 | 70 | 103 | 0.0 | 1.0 | 0.00 | 0.14 | 0.14 | 95 | 1012.2 |
| 20260510011003 | 70 | 103 | 0.0 | 1.0 | 0.00 | 0.14 | 0.14 | 95 | 1012.1 |
| 20260510010505 | 70 | 103 | 0.0 | 2.0 | 0.00 | 0.14 | 0.14 | 94 | 1012.1 |
| 20260510010004 | 70 | 103 | 1.0 | 2.0 | 0.00 | 0.14 | 0.14 | 95 | 1012.3 |
| 20260510005503 | 70 | 102 | 0.0 | 2.0 | 0.00 | 0.14 | 0.14 | 94 | 1012.1 |
| 20260510005005 | 70 | 102 | 0.0 | 2.0 | 0.00 | 0.14 | 0.14 | 94 | 1012.1 |
| 20260510004503 | 70 | 102 | 0.0 | 2.0 | 0.00 | 0.14 | 0.14 | 94 | 1011.8 |
| 20260510004005 | 70 | 102 | 0.0 | 1.0 | 0.00 | 0.14 | 0.14 | 94 | 1012.0 |
| 20260510003503 | 70 | 102 | 0.0 | 1.0 | 0.01 | 0.14 | 0.14 | 94 | 1011.9 |
| 20260510003004 | 70 | 102 | 0.0 | 1.0 | 0.01 | 0.14 | 0.14 | 94 | 1012.1 |
| 20260510002504 | 70 | 102 | 0.0 | 1.0 | 0.01 | 0.14 | 0.14 | 94 | 1012.1 |
| 20260510002004 | 69 | 102 | 0.0 | 2.0 | 0.01 | 0.14 | 0.14 | 94 | 1011.8 |
| 20260510001504 | 69 | 102 | 0.0 | 2.0 | 0.01 | 0.14 | 0.14 | 94 | 1011.6 |
| 20260510001003 | 70 | 96 | 1.0 | 3.0 | 0.01 | 0.14 | 0.14 | 94 | 1011.7 |
| 20260510000504 | 70 | 94 | 0.0 | 3.0 | 0.01 | 0.14 | 0.14 | 94 | 1011.6 |
| 20260510000003 | 70 | 92 | 0.0 | 2.0 | 0.01 | 0.14 | 0.14 | 94 | 1011.8 |
| 20260509235505 | 70 | 92 | 1.0 | 2.0 | 0.01 | 0.14 | 0.14 | 94 | 1011.7 |
| 20260509235003 | 70 | 86 | 1.0 | 3.0 | 0.01 | 0.14 | 0.14 | 94 | 1011.5 |
| 20260509234504 | 70 | 39 | 0.0 | 3.0 | 0.01 | 0.14 | 0.14 | 94 | 1011.8 |
| 20260509234003 | 70 | 15 | 1.0 | 3.0 | 0.01 | 0.14 | 0.14 | 94 | 1011.8 |
| 20260509233506 | 70 | 13 | 1.0 | 3.0 | 0.00 | 0.13 | 0.13 | 94 | 1011.8 |
| 20260509233006 | 70 | 4 | 1.0 | 3.0 | 0.00 | 0.13 | 0.13 | 94 | 1011.8 |
| 20260509232504 | 70 | 356 | 1.0 | 3.0 | 0.00 | 0.13 | 0.13 | 94 | 1011.8 |
| 20260509232006 | 70 | 4 | 1.0 | 3.0 | 0.00 | 0.13 | 0.13 | 94 | 1011.9 |
| 20260509231504 | 70 | 24 | 1.0 | 3.0 | 0.00 | 0.13 | 0.13 | 94 | 1012.0 |
| 20260509231003 | 70 | 29 | 1.0 | 3.0 | 0.01 | 0.13 | 0.13 | 94 | 1011.9 |
| 20260509230503 | 70 | 28 | 1.0 | 3.0 | 0.02 | 0.13 | 0.13 | 93 | 1011.9 |
| 20260509230005 | 70 | 32 | 1.0 | 3.0 | 0.03 | 0.13 | 0.13 | 93 | 1011.9 |
| 20260509225503 | 70 | 32 | 1.0 | 3.0 | 0.03 | 0.13 | 0.13 | 93 | 1011.8 |
| 20260509225006 | 70 | 31 | 2.0 | 3.0 | 0.03 | 0.13 | 0.13 | 93 | 1011.9 |
| 20260509224503 | 70 | 31 | 2.0 | 4.0 | 0.03 | 0.13 | 0.13 | 93 | 1012.0 |
| 20260509224005 | 70 | 31 | 2.0 | 5.0 | 0.03 | 0.13 | 0.13 | 93 | 1011.9 |
| 20260509223503 | 70 | 36 | 2.0 | 5.0 | 0.04 | 0.13 | 0.13 | 93 | 1012.0 |
| 20260509223004 | 70 | 49 | 1.0 | 4.0 | 0.05 | 0.13 | 0.13 | 93 | 1012.0 |
| 20260509222503 | 70 | 51 | 1.0 | 3.0 | 0.06 | 0.13 | 0.13 | 93 | 1012.2 |
| 20260509222005 | 70 | 46 | 1.0 | 4.0 | 0.07 | 0.13 | 0.13 | 93 | 1012.3 |
| 20260509221503 | 70 | 30 | 1.0 | 4.0 | 0.11 | 0.13 | 0.13 | 93 | 1012.4 |
| 20260509221004 | 70 | 333 | 2.0 | 7.0 | 0.11 | 0.12 | 0.12 | 92 | 1012.6 |
| 20260509220504 | 70 | 322 | 2.0 | 7.0 | 0.11 | 0.11 | 0.11 | 92 | 1012.8 |
| 20260509220003 | 70 | 331 | 1.0 | 5.0 | 0.10 | 0.10 | 0.10 | 92 | 1012.6 |
| 20260509215503 | 70 | 358 | 2.0 | 5.0 | 0.10 | 0.10 | 0.10 | 92 | 1012.5 |
| 20260509215004 | 70 | 350 | 1.0 | 4.0 | 0.10 | 0.10 | 0.10 | 91 | 1012.4 |
| 20260509214524 | 70 | 318 | 1.0 | 4.0 | 0.10 | 0.10 | 0.10 | 91 | 1012.4 |
| 20260509214003 | 71 | 350 | 1.0 | 4.0 | 0.10 | 0.10 | 0.10 | 91 | 1012.4 |
| 20260509213524 | 71 | 16 | 2.0 | 7.0 | 0.09 | 0.09 | 0.10 | 91 | 1012.3 |
| 20260509213025 | 71 | 335 | 3.0 | 7.0 | 0.08 | 0.08 | 0.09 | 90 | 1012.2 |
| 20260509212503 | 71 | 314 | 3.0 | 8.0 | 0.07 | 0.07 | 0.07 | 90 | 1012.3 |
| 20260509212004 | 72 | 311 | 3.0 | 8.0 | 0.06 | 0.06 | 0.06 | 89 | 1012.3 |
| 20260509211504 | 72 | 308 | 4.0 | 9.0 | 0.02 | 0.02 | 0.03 | 88 | 1012.2 |
| 20260509211024 | 73 | 314 | 5.0 | 12.0 | 0.01 | 0.01 | 0.01 | 86 | 1012.3 |
| 20260509210503 | 73 | 313 | 5.0 | 12.0 | 0.00 | 0.00 | 0.00 | 85 | 1012.0 |
| 20260509210004 | 74 | 314 | 5.0 | 9.0 | 0.00 | 0.00 | 0.00 | 83 | 1012.1 |
| 20260509205504 | 74 | 315 | 6.0 | 11.0 | 0.00 | 0.00 | 0.00 | 82 | 1011.8 |
| 20260509205003 | 74 | 314 | 5.0 | 11.0 | 0.00 | 0.00 | 0.00 | 81 | 1011.6 |
| 20260509204506 | 75 | 326 | 3.0 | 9.0 | 0.00 | 0.00 | 0.00 | 80 | 1011.6 |
| 20260509204003 | 76 | 360 | 3.0 | 11.0 | 0.00 | 0.00 | 0.00 | 80 | 1011.4 |
| 20260509203524 | 76 | 7 | 3.0 | 11.0 | 0.00 | 0.00 | 0.00 | 79 | 1011.5 |
| 20260509203003 | 77 | 16 | 3.0 | 10.0 | 0.00 | 0.00 | 0.00 | 78 | 1011.5 |
| 20260509202503 | 78 | 352 | 3.0 | 9.0 | 0.00 | 0.00 | 0.00 | 78 | 1011.4 |
| 20260509202003 | 79 | 327 | 4.0 | 13.0 | 0.00 | 0.00 | 0.00 | 76 | 1011.4 |
| 20260509201503 | 81 | 301 | 5.0 | 13.0 | 0.00 | 0.00 | 0.00 | 77 | 1011.4 |
| 20260509201003 | 81 | 278 | 4.0 | 9.0 | 0.00 | 0.00 | 0.00 | 80 | 1011.1 |
| 20260509200503 | 81 | 275 | 4.0 | 9.0 | 0.00 | 0.00 | 0.00 | 80 | 1011.2 |
| 20260509200004 | 81 | 280 | 5.0 | 9.0 | 0.00 | 0.00 | 0.00 | 80 | 1011.3 |
| 20260509195503 | 81 | 276 | 4.0 | 9.0 | 0.00 | 0.00 | 0.00 | 80 | 1011.2 |
| 20260509195003 | 81 | 271 | 3.0 | 8.0 | 0.00 | 0.00 | 0.00 | 80 | 1011.3 |
| 20260509194504 | 81 | 271 | 2.0 | 8.0 | 0.00 | 0.00 | 0.00 | 80 | 1011.3 |
| 20260509194003 | 81 | 262 | 2.0 | 4.0 | 0.00 | 0.00 | 0.00 | 81 | 1011.3 |
| 20260509193503 | 81 | 251 | 3.0 | 9.0 | 0.00 | 0.00 | 0.00 | 81 | 1011.4 |
| 20260509193003 | 81 | 248 | 3.0 | 9.0 | 0.00 | 0.00 | 0.00 | 80 | 1011.4 |
| 20260509192504 | 81 | 248 | 3.0 | 7.0 | 0.00 | 0.00 | 0.00 | 80 | 1011.5 |
| 20260509192004 | 81 | 245 | 3.0 | 6.0 | 0.00 | 0.00 | 0.00 | 80 | 1011.4 |
| 20260509191503 | 81 | 248 | 3.0 | 7.0 | 0.00 | 0.00 | 0.00 | 79 | 1011.4 |
| 20260509191003 | 81 | 252 | 3.0 | 7.0 | 0.00 | 0.00 | 0.00 | 78 | 1011.4 |
| 20260509190524 | 82 | 247 | 3.0 | 7.0 | 0.00 | 0.00 | 0.00 | 78 | 1011.4 |
| 20260509190026 | 82 | 245 | 3.0 | 9.0 | 0.00 | 0.00 | 0.00 | 78 | 1011.5 |
| 20260509185505 | 82 | 246 | 4.0 | 10.0 | 0.00 | 0.00 | 0.00 | 78 | 1011.6 |
| 20260509185006 | 82 | 252 | 4.0 | 10.0 | 0.00 | 0.00 | 0.00 | 77 | 1011.7 |
| 20260509184505 | 82 | 264 | 4.0 | 10.0 | 0.00 | 0.00 | 0.00 | 77 | 1011.7 |
| 20260509184005 | 82 | 264 | 5.0 | 10.0 | 0.00 | 0.00 | 0.00 | 78 | 1011.8 |
| 20260509183505 | 82 | 258 | 5.0 | 10.0 | 0.00 | 0.00 | 0.00 | 76 | 1011.9 |
| 20260509183005 | 82 | 258 | 4.0 | 9.0 | 0.00 | 0.00 | 0.00 | 76 | 1011.8 |
| 20260509182505 | 82 | 261 | 5.0 | 10.0 | 0.00 | 0.00 | 0.00 | 75 | 1011.7 |
| 20260509182005 | 82 | 255 | 4.0 | 10.0 | 0.00 | 0.00 | 0.00 | 76 | 1011.7 |
| 20260509181505 | 82 | 243 | 3.0 | 10.0 | 0.00 | 0.00 | 0.00 | 75 | 1011.8 |
| 20260509181005 | 83 | 246 | 4.0 | 11.0 | 0.00 | 0.00 | 0.00 | 74 | 1011.7 |
| 20260509180505 | 83 | 256 | 5.0 | 11.0 | 0.00 | 0.00 | 0.00 | 75 | 1011.8 |
| 20260509180005 | 83 | 255 | 5.0 | 11.0 | 0.00 | 0.00 | 0.00 | 74 | 1011.9 |
| 20260509175505 | 83 | 253 | 5.0 | 12.0 | 0.00 | 0.00 | 0.00 | 74 | 1011.8 |
| 20260509175005 | 83 | 254 | 5.0 | 12.0 | 0.00 | 0.00 | 0.00 | 73 | 1011.9 |
| 20260509174505 | 83 | 258 | 5.0 | 12.0 | 0.00 | 0.00 | 0.00 | 73 | 1012.1 |
| 20260509174004 | 84 | 260 | 5.0 | 12.0 | 0.00 | 0.00 | 0.00 | 72 | 1012.1 |
| 20260509173505 | 84 | 261 | 6.0 | 12.0 | 0.00 | 0.00 | 0.00 | 71 | 1012.1 |
| 20260509173026 | 84 | 253 | 5.0 | 12.0 | 0.00 | 0.00 | 0.00 | 71 | 1012.1 |
| 20260509172526 | 84 | 255 | 5.0 | 11.0 | 0.00 | 0.00 | 0.00 | 72 | 1012.2 |
| 20260509172004 | 84 | 262 | 5.0 | 11.0 | 0.00 | 0.00 | 0.00 | 72 | 1012.1 |
| 20260509171507 | 84 | 267 | 5.0 | 12.0 | 0.00 | 0.00 | 0.00 | 72 | 1012.2 |
| 20260509171005 | 84 | 271 | 5.0 | 12.0 | 0.00 | 0.00 | 0.00 | 71 | 1012.2 |
| 20260509170505 | 85 | 265 | 4.0 | 10.0 | 0.00 | 0.00 | 0.00 | 71 | 1012.1 |
| 20260509170026 | 85 | 262 | 4.0 | 9.0 | 0.00 | 0.00 | 0.00 | 73 | 1012.1 |
| 20260509165526 | 84 | 260 | 4.0 | 8.0 | 0.00 | 0.00 | 0.00 | 73 | 1012.2 |
| 20260509165005 | 85 | 246 | 2.0 | 8.0 | 0.00 | 0.00 | 0.00 | 73 | 1012.2 |
| 20260509164505 | 84 | 261 | 3.0 | 10.0 | 0.00 | 0.00 | 0.00 | 76 | 1012.1 |
| 20260509164005 | 84 | 263 | 4.0 | 10.0 | 0.00 | 0.00 | 0.00 | 76 | 1012.2 |
| 20260509163505 | 84 | 252 | 2.0 | 7.0 | 0.00 | 0.00 | 0.00 | 75 | 1012.1 |
| 20260509163026 | 84 | 248 | 2.0 | 7.0 | 0.00 | 0.00 | 0.00 | 76 | 1012.1 |
| 20260509162526 | 84 | 254 | 3.0 | 8.0 | 0.00 | 0.00 | 0.00 | 76 | 1012.3 |
| 20260509162005 | 84 | 274 | 5.0 | 11.0 | 0.00 | 0.00 | 0.00 | 76 | 1012.4 |
| 20260509161504 | 83 | 278 | 4.0 | 11.0 | 0.00 | 0.00 | 0.00 | 76 | 1012.3 |
| 20260509161004 | 83 | 258 | 2.0 | 7.0 | 0.00 | 0.00 | 0.00 | 75 | 1012.4 |
| 20260509160505 | 84 | 249 | 3.0 | 7.0 | 0.00 | 0.00 | 0.00 | 76 | 1012.3 |
| 20260509160005 | 84 | 247 | 3.0 | 9.0 | 0.00 | 0.00 | 0.00 | 77 | 1012.2 |
| 20260509155526 | 83 | 241 | 3.0 | 9.0 | 0.00 | 0.00 | 0.00 | 76 | 1012.0 |
| 20260509155005 | 83 | 224 | 2.0 | 7.0 | 0.00 | 0.00 | 0.00 | 78 | 1011.9 |
| 20260509154526 | 83 | 227 | 2.0 | 7.0 | 0.00 | 0.00 | 0.00 | 78 | 1011.9 |
| 20260509154026 | 83 | 243 | 2.0 | 7.0 | 0.00 | 0.00 | 0.00 | 80 | 1012.0 |
| 20260509153504 | 82 | 234 | 2.0 | 7.0 | 0.00 | 0.00 | 0.00 | 80 | 1011.9 |
| 20260509153005 | 82 | 228 | 2.0 | 8.0 | 0.00 | 0.00 | 0.00 | 81 | 1011.7 |
| 20260509152505 | 82 | 236 | 2.0 | 8.0 | 0.00 | 0.00 | 0.00 | 82 | 1011.8 |
| 20260509152005 | 81 | 237 | 2.0 | 6.0 | 0.00 | 0.00 | 0.00 | 84 | 1011.7 |
| 20260509151504 | 81 | 220 | 2.0 | 8.0 | 0.00 | 0.00 | 0.00 | 83 | 1011.8 |
| 20260509151005 | 81 | 175 | 1.0 | 8.0 | 0.00 | 0.00 | 0.00 | 84 | 1011.6 |
| 20260509150504 | 80 | 173 | 1.0 | 4.0 | 0.00 | 0.00 | 0.00 | 85 | 1011.5 |
| 20260509150004 | 80 | 202 | 1.0 | 4.0 | 0.00 | 0.00 | 0.00 | 84 | 1011.6 |
| 20260509145504 | 80 | 218 | 1.0 | 4.0 | 0.00 | 0.00 | 0.00 | 85 | 1011.6 |
| 20260509145004 | 80 | 229 | 1.0 | 6.0 | 0.00 | 0.00 | 0.00 | 84 | 1011.8 |
| 20260509144506 | 80 | 207 | 2.0 | 7.0 | 0.00 | 0.00 | 0.00 | 85 | 1011.8 |
| 20260509144005 | 79 | 221 | 1.0 | 7.0 | 0.00 | 0.00 | 0.00 | 86 | 1011.7 |
| 20260509143505 | 79 | 219 | 1.0 | 4.0 | 0.00 | 0.00 | 0.00 | 86 | 1011.9 |
| 20260509143005 | 79 | 176 | 1.0 | 4.0 | 0.00 | 0.00 | 0.00 | 88 | 1011.9 |
| 20260509142505 | 78 | 226 | 1.0 | 4.0 | 0.00 | 0.00 | 0.00 | 87 | 1012.0 |
| 20260509142004 | 78 | 245 | 1.0 | 4.0 | 0.00 | 0.00 | 0.00 | 87 | 1012.3 |
| 20260509141504 | 78 | 174 | 1.0 | 4.0 | 0.00 | 0.00 | 0.00 | 87 | 1012.5 |
| 20260509141005 | 78 | 115 | 1.0 | 3.0 | 0.00 | 0.00 | 0.00 | 88 | 1012.4 |
| 20260509140505 | 78 | 116 | 1.0 | 4.0 | 0.00 | 0.00 | 0.00 | 89 | 1012.4 |
| 20260509140005 | 77 | 135 | 1.0 | 4.0 | 0.00 | 0.00 | 0.00 | 89 | 1012.3 |
| 20260509135504 | 77 | 150 | 1.0 | 4.0 | 0.00 | 0.00 | 0.00 | 88 | 1012.3 |
| 20260509135025 | 77 | 164 | 1.0 | 4.0 | 0.00 | 0.00 | 0.00 | 88 | 1012.3 |